Location: Grantsboro
(35.1404°N, 76.8424°W)
Time: 21:25:01
(UTC+00:00)

CSL-04 Rocket - Pass Details

Date: 18 January 2020
Orbit: 806 x 860 km, 99.0° (Epoch: 16 February)

Event Time Altitude Azimuth Distance (km) Brightness Sun altitude
Rises 00:04:24 0° 173° (S) 3,359 6.9 -21.0°
Reaches altitude 10° 00:06:45 10° 176° (S) 2,437 6.2 -21.5°
Maximum altitude 00:12:07 65° 258° (WSW) 925 4.1 -22.6°
Drops below altitude 10° 00:17:36 10° 340° (NNW) 2,485 6.2 -23.7°
Sets 00:20:01 0° 344° (NNW) 3,430 7.0 -24.2°
